[[{"header":{"parameterUnit":"m.s-1","parameterCategory":1,"la1":30.2991,"la2":30.254,"lo1":-89.0895,"lo2":-89.0444,"dy":0.0017,"dx":0.0017,"nx":28,"ny":28,"refTime":"2025-07-10T03:00:00:Z","depth":0,"parameterNumber":2,"parameterNumberName":"U-component_of_WINDS"},"data":[0,0,0,0,0,0,0,0,0,0,0,0,0,0,0,0,0,0,0,0,0,0,0,0,0,0,0,0,0,0,0,0,0,0,0,0,0,0,0,0,0,0,0,0,0,0,0,0,0,0,0,0,0,0,0,0,0,0,4.7848,4.785,0,4.7983,4.7984,4.7986,4.7978,4.7976,4.7974,4.7972,4.8112,4.8118,4.8123,0,0,0,0,0,0,0,0,0,0,0,0,0,4.7588,4.7593,4.7848,4.785,4.7851,4.7983,4.7984,4.7986,4.7978,4.7976,4.7974,4.7971,4.8111,4.8117,4.8124,0,0,0,0,0,0,0,0,0,0,0,0,0,4.771,4.7594,4.7848,4.7863,4.7866,4.7982,4.7985,4.7987,4.7979,4.7976,4.7973,4.797,4.8108,4.8117,4.8125,4.8235,0,0,4.815,4.8154,0,0,0,0,0,0,0,0,4.7703,4.7719,4.7859,4.7862,4.7866,4.7961,4.7944,4.807,4.798,4.7936,4.7972,4.7969,4.8064,4.8076,4.8108,4.8242,4.8248,4.8151,4.8156,4.816,4.8162,0,0,0,0,0,0,0,4.7694,4.7713,4.7901,4.7861,4.7865,4.7865,4.7879,4.7968,4.8015,4.794,4.7939,4.7955,4.8066,4.81,4.8111,4.825,4.8151,4.8158,4.8163,4.8167,4.8483,4.8486,0,0,0,0,0,0,4.7682,4.7706,4.7897,4.7905,4.7775,4.7872,4.7887,4.7933,4.8014,4.8024,4.7958,4.7954,4.8087,4.8102,4.8116,4.8251,4.816,4.8167,4.8172,4.848,4.8484,4.8488,0,0,0,0,0,0,4.7676,4.7699,4.7892,4.7806,4.783,4.7879,4.7931,4.7937,4.7971,4.8028,4.8036,4.7984,4.8085,4.8104,4.8206,4.8256,4.8171,4.8179,4.8476,4.8481,4.8486,4.8522,0,0,0,0,0,0,4.7669,4.7697,4.7738,4.7807,4.7835,4.7978,4.7934,4.7942,4.7986,4.7983,4.8055,4.8064,4.8085,4.8194,4.8214,4.8266,4.8185,4.8471,4.8478,4.8484,4.8517,4.8528,4.8538,0,0,0,0,0,4.766,4.7743,4.774,4.7763,4.7887,4.7981,4.7997,4.8019,4.799,4.8032,4.8069,4.8061,4.8248,4.8204,4.8227,4.8282,4.8468,4.8476,4.8484,4.8512,4.8526,4.8537,0,0,0,0,0,0,4.7679,4.7752,4.775,4.7858,4.7913,4.7979,4.8033,4.8032,4.8097,4.8092,4.8117,4.8133,4.8235,4.8269,4.8219,4.8395,4.8355,4.8367,4.8368,4.8382,4.8392,4.8381,4.8192,0,0,0,0,0,4.7696,4.7765,4.7825,4.7915,4.7943,4.7984,4.8025,4.8037,4.8096,4.8119,4.8163,4.8221,4.8293,4.8339,4.8408,4.8523,4.8539,4.8572,4.8583,4.8591,4.8601,4.8665,4.8681,4.8513,4.8513,4.8513,0,0,4.7731,4.778,4.7822,4.792,4.7964,4.8036,4.8003,4.808,4.8134,4.8131,4.8229,4.8264,4.8331,4.8439,4.8489,4.8471,4.8652,4.8601,4.8607,4.8613,4.8675,4.8691,4.8705,4.8518,4.8517,4.8516,0,0,4.7832,4.7876,4.7955,4.8001,4.8069,4.8096,4.8115,4.8182,4.8205,4.8304,4.8304,4.837,4.8492,4.854,4.858,4.8703,4.8699,4.8725,4.8779,4.8841,4.8855,4.8867,4.8911,4.8926,4.8736,4.8736,4.8736,0,4.7867,4.7974,4.7997,4.8075,4.8119,4.812,4.8202,4.8246,4.8333,4.8364,4.8342,4.8497,4.8542,4.8662,4.8693,4.8725,4.8749,4.8716,4.8851,4.8863,4.8874,4.8917,4.8933,4.8739,4.8738,4.8738,4.8738,0,4.8015,4.809,4.8147,4.823,4.8281,4.8361,4.8397,4.8446,4.8455,4.8485,4.8587,4.8641,4.8722,4.8752,4.8761,4.8875,4.8861,4.8845,4.8805,4.8893,4.8933,4.8949,4.8742,4.8741,4.8741,4.874,0,0,4.8129,4.8226,4.8246,4.8285,4.8362,4.842,4.8502,4.858,4.8622,4.8684,4.8752,4.8858,4.8844,4.889,4.8905,4.896,4.9055,4.8938,4.894,4.8957,4.9184,4.9195,4.9213,4.9054,4.9057,4.906,4.9178,0,4.8237,4.8379,4.8403,4.8528,4.8598,4.8602,4.8673,4.8729,4.876,4.8825,4.886,4.8934,4.891,4.8938,4.8993,4.9032,4.9101,4.9024,4.9119,4.9122,4.91,4.9234,4.9245,4.9354,4.9194,4.9197,4.9199,0,4.8381,4.8446,4.8578,4.8647,4.8677,4.874,4.8816,4.8878,4.8942,4.8961,4.9014,4.9023,4.9109,4.9067,4.9187,4.9134,4.9175,4.92,4.9205,4.9213,4.9164,4.9245,4.939,4.9406,4.9224,4.9222,4.922,0,4.8451,4.8572,4.8666,4.87,4.8782,4.8827,4.8864,4.8925,4.8971,4.9038,4.9069,4.9145,4.9186,4.9246,4.9276,4.9243,4.9394,4.9354,4.9413,4.9412,4.9443,4.944,4.9595,4.9471,4.9471,4.9471,4.9471,0,4.8568,4.8649,4.8699,4.8757,4.8848,4.8877,4.8966,4.9002,4.9057,4.9124,4.9133,4.9196,4.9233,4.9301,4.9326,4.9422,4.9441,4.9459,4.9465,4.9458,4.9455,4.9483,4.9476,4.9475,4.9474,4.9473,4.9473,0,4.866,4.8696,4.88,4.8871,4.8891,4.8955,4.9016,4.9073,4.9106,4.919,4.9211,4.9262,4.9343,4.9381,4.9481,4.9498,4.9607,4.9608,4.9585,4.9586,4.9643,4.9636,4.982,4.9845,4.9706,4.9707,4.9708,0,4.8731,4.8793,4.8871,4.8916,4.8954,4.9026,4.9074,4.9106,4.9156,4.9235,4.9284,4.9365,4.9432,4.9562,4.9609,4.9686,4.9688,4.9748,4.97,4.9691,4.9689,4.9684,4.969,4.9755,4.9757,4.9758,4.9759,0,4.8854,4.887,4.8938,4.9014,4.9071,4.9132,4.9192,4.9229,4.9271,4.9327,4.941,4.9462,4.9565,4.9646,4.9727,4.9767,4.977,4.9774,4.9791,4.9784,4.9768,4.9777,4.9607,4.9769,4.9768,4.9767,4.9766,4.9766,4.8938,4.8994,4.9057,4.9134,4.9183,4.9239,4.9297,4.9338,4.9407,4.9493,4.9509,4.9597,4.9663,4.9772,4.9815,4.9885,4.9871,4.9897,4.9903,4.9909,4.9911,4.9758,4.9901,4.99,4.99,4.99,4.99,0,4.9061,4.9103,4.9173,4.9257,4.9318,4.9317,4.9384,4.9435,4.9512,4.9573,4.9639,4.9736,4.9815,4.9869,4.995,4.9997,5.0001,5.0017,5.0013,5.0022,4.992,4.9896,5.0013,5.0013,5.0013,5.0013,5.0013,5.0013,4.9132,4.9226,4.925,4.937,4.9412,4.9499,4.9538,4.9591,4.9639,4.9746,4.9812,4.9847,4.9906,4.9992,5.0065,5.008,5.0109,5.0125,5.0139,5.0041,5.0029,5.0018,4.9996,5.0132,5.0132,5.0236,5.0237,5.0237]},{"header":{"parameterUnit":"m.s-1","parameterCategory":1,"la1":30.2991,"la2":30.254,"lo1":-89.0895,"lo2":-89.0444,"dy":0.0017,"dx":0.0017,"nx":28,"ny":28,"refTime":"2025-07-10T03:00:00:Z","depth":0,"parameterNumber":3,"parameterNumberName":"V-component_of_WINDS"},"data":[0,0,0,0,0,0,0,0,0,0,0,0,0,0,0,0,0,0,0,0,0,0,0,0,0,0,0,0,0,0,0,0,0,0,0,0,0,0,0,0,0,0,0,0,0,0,0,0,0,0,0,0,0,0,0,0,0,0,1.7562,1.7563,0,1.7692,1.7694,1.7695,1.7738,1.7737,1.7737,1.7736,1.7871,1.7875,1.7879,0,0,0,0,0,0,0,0,0,0,0,0,0,1.7349,1.7353,1.7562,1.7564,1.7565,1.7692,1.7694,1.7696,1.7738,1.7737,1.7736,1.7736,1.7869,1.7874,1.7879,0,0,0,0,0,0,0,0,0,0,0,0,0,1.7457,1.7354,1.7562,1.7601,1.7606,1.7692,1.7694,1.7696,1.7738,1.7737,1.7736,1.7735,1.7868,1.7874,1.788,1.7936,0,0,1.7899,1.7902,0,0,0,0,0,0,0,0,1.7451,1.7465,1.7594,1.7599,1.7604,1.7698,1.7668,1.7777,1.7738,1.7688,1.7736,1.7735,1.7814,1.7825,1.7851,1.7942,1.7948,1.79,1.7903,1.7906,1.7908,0,0,0,0,0,0,0,1.7443,1.7459,1.7614,1.7596,1.7602,1.7613,1.7627,1.7689,1.7754,1.7692,1.7696,1.771,1.7817,1.7845,1.7855,1.795,1.7899,1.7905,1.7909,1.7911,1.809,1.8091,0,0,0,0,0,0,1.7429,1.7453,1.7609,1.7618,1.7524,1.7617,1.7633,1.7669,1.7754,1.7766,1.7711,1.7712,1.7835,1.7847,1.7859,1.7929,1.7906,1.7912,1.7915,1.8089,1.8091,1.8092,0,0,0,0,0,0,1.7424,1.7443,1.7604,1.7536,1.7557,1.7622,1.7661,1.7672,1.77,1.7768,1.778,1.7728,1.7835,1.7851,1.7916,1.7934,1.7914,1.792,1.8088,1.809,1.8091,1.8068,0,0,0,0,0,0,1.7418,1.7441,1.7463,1.7536,1.7561,1.7658,1.7663,1.7675,1.771,1.7713,1.7787,1.7798,1.7835,1.7906,1.7922,1.7942,1.7925,1.8087,1.8089,1.8091,1.8068,1.8069,1.807,0,0,0,0,0,1.741,1.7452,1.7464,1.7482,1.759,1.7659,1.7674,1.7715,1.7712,1.7734,1.7777,1.7796,1.7929,1.7913,1.7931,1.7953,1.8086,1.8088,1.8091,1.8067,1.8069,1.807,0,0,0,0,0,0,1.738,1.7462,1.7476,1.7543,1.7594,1.7666,1.7696,1.7715,1.7768,1.7768,1.7818,1.7834,1.7895,1.7931,1.791,1.801,1.8008,1.8014,1.7984,1.7986,1.7987,1.7977,1.793,0,0,0,0,0,1.7381,1.743,1.75,1.7552,1.7576,1.7632,1.7664,1.7691,1.7745,1.7767,1.7816,1.7868,1.7922,1.7956,1.8009,1.8073,1.8089,1.8097,1.8098,1.8098,1.8103,1.8137,1.8141,1.8099,1.8099,1.8099,0,0,1.7384,1.7435,1.7463,1.7547,1.759,1.7639,1.765,1.7703,1.774,1.7776,1.7839,1.7876,1.7938,1.8002,1.8033,1.8034,1.8118,1.8102,1.8101,1.8106,1.814,1.8144,1.8147,1.8101,1.8101,1.8101,0,0,1.7414,1.7458,1.7505,1.7547,1.7611,1.7647,1.7658,1.7727,1.7753,1.7817,1.7845,1.7889,1.7981,1.8024,1.8057,1.81,1.8119,1.8116,1.8122,1.8155,1.8158,1.8161,1.8175,1.818,1.8121,1.8121,1.8121,0,1.7409,1.7485,1.7527,1.7578,1.7613,1.7647,1.7694,1.7733,1.7811,1.7834,1.7834,1.7948,1.7993,1.8066,1.8076,1.8102,1.8116,1.8108,1.8154,1.8158,1.8161,1.8175,1.818,1.812,1.812,1.812,1.812,0,1.7476,1.7528,1.7558,1.7631,1.767,1.7719,1.7768,1.7802,1.7825,1.7861,1.7925,1.7979,1.8042,1.8062,1.8086,1.8138,1.8136,1.8144,1.8144,1.8164,1.8177,1.8183,1.8119,1.8119,1.8119,1.8119,0,0,1.7492,1.7585,1.7596,1.7628,1.77,1.7741,1.7791,1.7852,1.788,1.7932,1.7974,1.805,1.8057,1.8095,1.8123,1.8152,1.8181,1.8157,1.8159,1.8158,1.824,1.8232,1.8238,1.8193,1.8194,1.8195,1.8234,0,1.753,1.762,1.7658,1.773,1.7778,1.7809,1.7852,1.7901,1.7935,1.798,1.8018,1.807,1.8077,1.8099,1.8129,1.8171,1.8197,1.8169,1.8232,1.8234,1.8215,1.8246,1.8239,1.8273,1.824,1.8241,1.8242,0,1.7588,1.7638,1.7715,1.7779,1.78,1.7838,1.7896,1.7939,1.7994,1.8017,1.8057,1.8084,1.8136,1.8132,1.8204,1.8183,1.8211,1.8235,1.8238,1.8245,1.8239,1.8253,1.8285,1.829,1.8251,1.825,1.8249,0,1.759,1.7678,1.7734,1.7761,1.7837,1.7863,1.7896,1.795,1.7983,1.8034,1.8056,1.8113,1.8143,1.8186,1.8227,1.822,1.8294,1.8294,1.8314,1.8313,1.8329,1.8327,1.8365,1.8347,1.8347,1.8347,1.8347,0,1.7629,1.7674,1.7736,1.7771,1.7822,1.7865,1.7914,1.7949,1.7996,1.8038,1.8069,1.8107,1.8159,1.8203,1.8235,1.8289,1.8303,1.8323,1.833,1.832,1.8317,1.8339,1.8337,1.8349,1.8348,1.8348,1.8348,0,1.764,1.7683,1.7747,1.7813,1.783,1.7865,1.7922,1.7956,1.7991,1.8043,1.8058,1.8113,1.8167,1.8211,1.8282,1.8304,1.8359,1.8369,1.8341,1.8345,1.8362,1.836,1.8415,1.8424,1.8401,1.8401,1.8401,0,1.7661,1.7697,1.7766,1.7796,1.7828,1.7876,1.7909,1.7953,1.7987,1.805,1.8077,1.8133,1.818,1.8264,1.831,1.8364,1.8375,1.839,1.8383,1.837,1.8374,1.8371,1.8374,1.8391,1.8391,1.8391,1.8391,0,1.7694,1.7714,1.7761,1.7816,1.7855,1.79,1.7947,1.7969,1.802,1.8057,1.8112,1.8148,1.822,1.8274,1.8333,1.8367,1.8387,1.8393,1.84,1.8389,1.8371,1.838,1.8342,1.8391,1.8391,1.8391,1.8391,1.8391,1.7711,1.7743,1.7796,1.7848,1.7886,1.7928,1.7963,1.8002,1.8048,1.8109,1.8132,1.8188,1.824,1.832,1.8354,1.8398,1.84,1.8411,1.8414,1.8416,1.8414,1.8364,1.8409,1.8409,1.8409,1.8409,1.8409,0,1.7745,1.778,1.7827,1.7889,1.7929,1.7944,1.7996,1.8028,1.8077,1.8123,1.8168,1.823,1.8283,1.8332,1.8387,1.8413,1.8423,1.8426,1.8424,1.8431,1.8409,1.8397,1.8416,1.8416,1.8416,1.8416,1.8416,1.8416,1.7767,1.7821,1.7847,1.792,1.7955,1.801,1.8037,1.8076,1.8113,1.818,1.8224,1.8255,1.8303,1.8361,1.8409,1.8422,1.8441,1.844,1.8456,1.8434,1.8433,1.8432,1.842,1.8444,1.8444,1.8474,1.8475,1.8475]}]]